Temp
-12 -12 -12 -12 -12 -12 -11 -11 -11 -11 -11 -11 -10 -11 -11 -10 -11 -11 -12 -13 -15 -15 -16 -16 -15 -16 -16 -17 -17 -16 -16 -16 -15 -15 -15 -15 -14 -13 -13 -13 -13 -12 -12 -12 -12
-12 -12 -12 -12 -12 -12 -11 -11 -11 -11 -11 -11 -11 -11 -11 -11 -11 -11 -12 -13 -15 -15 -16 -16 -16 -16 -17 -17 -17 -16 -16 -16 -16 -15 -15 -15 -14 -14 -13 -13 -13 -12 -12 -11 -12
-12 -12 -12 -12 -12 -12 -12 -11 -11 -11 -11 -11 -11 -11 -11 -11 -11 -12 -12 -14 -15 -16 -16 -16 -17 -17 -18 -17 -17 -16 -16 -16 -16 -16 -15 -15 -15 -14 -14 -13 -12 -12 -12 -12 -12
-12 -12 -12 -12 -12 -12 -12 -12 -12 -11 -11 -11 -11 -11 -11 -11 -11 -12 -13 -15 -16 -16 -16 -17 -17 -17 -17 -17 -17 -16 -16 -16 -16 -16 -16 -15 -14 -14 -13 -12 -12 -12 -12 -12 -12
-12 -12 -12 -12 -12 -12 -12 -12 -12 -12 -11 -12 -11 -11 -11 -11 -11 -12 -13 -15 -16 -17 -17 -17 -17 -17 -17 -18 -17 -17 -17 -16 -16 -15 -15 -14 -14 -14 -13 -13 -12 -12 -12 -12 -13
-13 -13 -13 -12 -12 -12 -12 -12 -12 -12 -12 -12 -11 -11 -11 -11 -12 -12 -13 -15 -16 -17 -17 -17 -17 -17 -17 -17 -17 -17 -17 -16 -15 -15 -15 -15 -14 -14 -14 -13 -12 -12 -13 -12 -12
-13 -13 -12 -12 -12 -12 -12 -12 -12 -12 -12 -12 -12 -11 -11 -11 -12 -12 -14 -15 -16 -16 -17 -16 -16 -16 -17 -17 -17 -17 -16 -16 -16 -15 -15 -15 -15 -15 -14 -14 -13 -13 -13 -13 -13
-13 -13 -13 -12 -12 -13 -12 -12 -12 -12 -12 -12 -12 -12 -11 -12 -12 -13 -14 -16 -16 -16 -16 -16 -16 -16 -17 -17 -17 -17 -17 -16 -16 -15 -15 -16 -16 -15 -15 -14 -14 -14 -15 -13 -15
-14 -13 -13 -13 -13 -13 -13 -12 -12 -12 -12 -12 -12 -12 -11 -12 -12 -13 -15 -16 -16 -16 -17 -16 -16 -16 -16 -17 -17 -17 -17 -16 -16 -16 -16 -17 -16 -15 -16 -16 -16 -16 -16 -15 -15
-13 -13 -13 -13 -14 -13 -13 -12 -12 -12 -12 -12 -12 -12 -12 -12 -12 -13 -15 -15 -15 -16 -16 -16 -16 -16 -17 -18 -17 -17 -17 -16 -16 -16 -17 -16 -16 -16 -15 -15 -16 -16 -15 -15 -14
-14 -13 -13 -13 -14 -14 -13 -13 -12 -12 -12 -12 -12 -12 -12 -12 -12 -13 -15 -15 -15 -16 -16 -16 -16 -16 -17 -17 -16 -17 -16 -16 -17 -17 -16 -16 -16 -16 -16 -16 -15 -15 -15 -16 -15
-13 -13 -13 -14 -14 -14 -14 -13 -12 -12 -12 -12 -12 -12 -12 -12 -12 -13 -14 -15 -15 -15 -15 -16 -16 -16 -15 -15 -16 -16 -15 -15 -15 -16 -16 -16 -15 -16 -16 -16 -15 -15 -15 -15 -15
-14 -14 -13 -14 -15 -14 -14 -13 -13 -13 -12 -13 -12 -12 -12 -12 -13 -13 -14 -15 -15 -15 -15 -15 -15 -16 -16 -15 -16 -16 -16 -15 -15 -15 -15 -15 -15 -16 -16 -16 -15 -15 -15 -14 -15
-14 -14 -14 -14 -14 -15 -14 -14 -13 -13 -12 -13 -13 -12 -12 -12 -13 -13 -14 -14 -15 -16 -14 -15 -15 -15 -15 -15 -15 -15 -15 -16 -15 -16 -16 -15 -15 -15 -15 -15 -15 -15 -15 -15 -15
-15 -14 -14 -14 -14 -14 -14 -14 -14 -13 -13 -12 -12 -12 -12 -12 -13 -13 -14 -15 -15 -16 -15 -14 -14 -15 -15 -15 -15 -14 -15 -15 -15 -16 -16 -15 -14 -15 -15 -14 -15 -14 -15 -15 -15
-16 -15 -14 -14 -14 -14 -14 -14 -14 -14 -13 -13 -12 -12 -12 -12 -13 -13 -14 -14 -15 -15 -15 -14 -14 -15 -15 -15 -15 -15 -14 -15 -15 -16 -16 -16 -15 -15 -14 -15 -15 -14 -15 -15 -15
-16 -16 -15 -15 -15 -14 -14 -14 -14 -13 -13 -13 -13 -13 -13 -13 -13 -13 -14 -14 -15 -15 -15 -14 -14 -15 -15 -16 -15 -15 -15 -15 -15 -16 -15 -16 -15 -15 -15 -15 -15 -15 -15 -15 -15
-17 -16 -16 -16 -15 -14 -14 -14 -13 -12 -14 -14 -13 -13 -13 -13 -13 -13 -14 -14 -15 -15 -16 -15 -15 -15 -15 -16 -16 -16 -15 -15 -15 -15 -15 -15 -15 -15 -15 -15 -15 -15 -15 -15 -15
-17 -16 -16 -16 -16 -15 -14 -14 -12 -13 -14 -14 -14 -13 -13 -13 -13 -13 -14 -14 -15 -15 -15 -15 -16 -16 -16 -16 -16 -16 -16 -16 -15 -16 -15 -15 -15 -15 -15 -15 -15 -15 -15 -15 -15
-18 -17 -17 -19 -17 -15 -14 -13 -12 -14 -15 -15 -14 -14 -14 -14 -13 -13 -14 -14 -15 -15 -15 -16 -16 -16 -16 -17 -17 -17 -16 -16 -16 -16 -16 -15 -15 -15 -15 -15 -15 -15 -15 -15 -15
-18 -17 -17 -20 -18 -15 -13 -12 -13 -15 -16 -15 -15 -14 -14 -14 -14 -14 -14 -15 -15 -15 -15 -16 -16 -16 -17 -16 -17 -17 -17 -17 -16 -16 -15 -15 -15 -15 -15 -15 -15 -15 -15 -16 -16
-18 -17 -17 -20 -18 -13 -12 -13 -13 -16 -16 -15 -15 -14 -14 -14 -14 -14 -14 -15 -15 -16 -15 -15 -16 -16 -16 -17 -17 -17 -16 -17 -16 -16 -16 -15 -15 -15 -15 -15 -15 -16 -16 -16 -16
-18 -18 -18 -20 -17 -13 -13 -13 -14 -17 -16 -16 -15 -14 -14 -14 -15 -15 -15 -15 -15 -16 -16 -16 -16 -16 -16 -16 -16 -17 -16 -17 -17 -16 -15 -15 -14 -15 -15 -15 -16 -16 -16 -16 -16
-19 -19 -19 -19 -16 -14 -13 -13 -13 -16 -16 -16 -16 -15 -14 -14 -14 -14 -15 -15 -15 -15 -16 -17 -17 -16 -16 -17 -17 -17 -17 -17 -16 -16 -15 -15 -15 -15 -15 -15 -15 -15 -15 -15 -15
-20 -19 -18 -17 -15 -14 -14 -13 -14 -16 -15 -16 -16 -15 -15 -15 -15 -15 -15 -15 -16 -16 -16 -16 -17 -17 -17 -17 -17 -17 -17 -17 -16 -16 -16 -16 -16 -16 -16 -15 -16 -15 -16 -16 -15
-20 -19 -18 -17 -17 -15 -14 -13 -13 -16 -16 -15 -15 -16 -16 -15 -15 -16 -16 -16 -16 -16 -17 -17 -17 -17 -16 -16 -16 -16 -16 -17 -16 -16 -15 -16 -16 -16 -16 -16 -16 -16 -16 -16 -16
-20 -20 -18 -17 -17 -16 -13 -13 -14 -17 -17 -17 -16 -17 -16 -15 -16 -16 -16 -16 -16 -17 -17 -17 -17 -17 -16 -16 -16 -16 -16 -16 -16 -17 -16 -16 -16 -16 -16 -16 -16 -16 -16 -17 -16
Height
5832 5833 5833 5834 5833 5833 5831 5829 5829 5827 5826 5823 5822 5818 5813 5808 5804 5797 5791 5784 5777 5773 5769 5767 5768 5766 5766 5767 5769 5771 5773 5772 5773 5774 5776 5778 5781 5781 5782 5783 5785 5786 5786 5786 5788
5826 5827 5827 5828 5828 5827 5826 5824 5824 5822 5821 5819 5817 5814 5809 5804 5800 5793 5787 5779 5774 5770 5767 5765 5765 5765 5764 5765 5768 5770 5772 5772 5771 5772 5774 5777 5779 5779 5780 5780 5781 5783 5783 5783 5783
5819 5820 5821 5822 5822 5821 5820 5819 5818 5817 5816 5814 5813 5810 5804 5800 5797 5790 5783 5775 5770 5767 5764 5763 5763 5763 5763 5764 5765 5766 5768 5768 5769 5770 5772 5774 5777 5778 5777 5776 5778 5778 5777 5777 5778
5811 5812 5813 5814 5815 5815 5814 5813 5813 5812 5811 5810 5808 5805 5800 5797 5793 5787 5779 5773 5768 5764 5762 5762 5763 5763 5761 5762 5763 5765 5766 5766 5768 5769 5772 5774 5775 5773 5773 5773 5772 5772 5773 5773 5772
5803 5804 5805 5807 5808 5808 5808 5808 5808 5807 5806 5805 5803 5800 5796 5793 5789 5783 5777 5771 5766 5762 5760 5761 5761 5762 5762 5761 5762 5765 5766 5766 5770 5772 5772 5772 5772 5770 5770 5768 5766 5766 5767 5767 5766
5794 5796 5798 5799 5800 5801 5801 5802 5802 5802 5802 5801 5799 5796 5793 5791 5785 5780 5774 5769 5765 5762 5761 5761 5762 5762 5763 5762 5763 5765 5767 5769 5771 5770 5771 5772 5770 5769 5767 5765 5763 5762 5760 5760 5763
5785 5788 5790 5791 5793 5794 5795 5795 5795 5796 5798 5796 5795 5792 5789 5787 5782 5777 5772 5768 5766 5764 5762 5761 5761 5761 5761 5761 5762 5763 5765 5769 5769 5770 5770 5768 5769 5768 5766 5764 5762 5760 5760 5759 5762
5776 5778 5781 5783 5785 5787 5788 5789 5789 5790 5793 5791 5790 5788 5785 5783 5779 5774 5770 5766 5764 5762 5760 5760 5759 5759 5759 5759 5760 5760 5764 5767 5768 5768 5767 5766 5768 5767 5766 5764 5762 5759 5758 5759 5762
5765 5768 5771 5773 5777 5779 5780 5782 5782 5785 5787 5786 5786 5783 5782 5779 5776 5772 5768 5765 5762 5760 5758 5758 5758 5758 5758 5759 5759 5759 5760 5764 5767 5765 5765 5766 5770 5770 5767 5767 5766 5764 5764 5766 5768
5754 5756 5759 5763 5767 5771 5773 5774 5775 5779 5781 5781 5781 5781 5778 5776 5773 5769 5766 5763 5761 5760 5759 5759 5758 5757 5757 5758 5758 5759 5758 5761 5765 5763 5763 5765 5767 5769 5769 5769 5770 5770 5769 5769 5770
5742 5747 5750 5754 5758 5762 5765 5767 5770 5773 5776 5776 5776 5774 5773 5772 5769 5765 5764 5762 5761 5760 5760 5759 5758 5756 5756 5757 5757 5759 5758 5760 5763 5764 5764 5765 5764 5765 5769 5769 5770 5771 5772 5772 5774
5731 5735 5739 5744 5749 5753 5757 5757 5762 5767 5769 5768 5770 5769 5769 5768 5766 5763 5761 5762 5760 5759 5759 5757 5755 5753 5754 5756 5757 5759 5761 5763 5764 5764 5765 5764 5764 5764 5766 5769 5769 5771 5772 5772 5774
5719 5725 5730 5734 5739 5745 5748 5750 5755 5758 5761 5763 5765 5764 5765 5765 5762 5759 5758 5759 5759 5759 5758 5756 5757 5754 5757 5759 5761 5761 5761 5762 5763 5763 5764 5765 5764 5763 5765 5768 5769 5771 5773 5774 5775
5706 5713 5719 5724 5731 5734 5738 5744 5747 5751 5752 5759 5757 5758 5761 5760 5759 5756 5755 5758 5758 5758 5758 5757 5757 5758 5758 5760 5760 5759 5760 5762 5763 5761 5763 5764 5766 5764 5765 5766 5769 5771 5772 5773 5775
5693 5699 5707 5714 5719 5723 5729 5735 5738 5743 5745 5750 5751 5753 5755 5756 5755 5754 5752 5754 5756 5756 5757 5757 5756 5757 5759 5760 5761 5761 5761 5761 5761 5760 5761 5762 5764 5764 5764 5766 5766 5768 5769 5771 5772
5680 5687 5694 5703 5707 5712 5718 5725 5731 5736 5737 5741 5745 5748 5750 5750 5751 5749 5749 5751 5752 5754 5754 5754 5755 5755 5757 5760 5760 5761 5760 5759 5759 5759 5760 5761 5761 5762 5762 5762 5762 5762 5764 5766 5769
5665 5673 5682 5690 5695 5702 5707 5715 5721 5723 5733 5736 5740 5742 5742 5745 5746 5745 5745 5746 5749 5751 5752 5752 5753 5753 5754 5757 5758 5759 5759 5758 5758 5758 5759 5759 5759 5762 5763 5761 5761 5759 5760 5758 5759
5650 5658 5668 5678 5681 5690 5697 5704 5710 5717 5725 5729 5733 5734 5736 5739 5741 5740 5741 5742 5743 5744 5747 5748 5750 5750 5753 5754 5755 5755 5757 5757 5755 5756 5757 5756 5757 5759 5760 5760 5759 5760 5758 5757 5756
5634 5644 5655 5665 5668 5677 5685 5692 5701 5711 5717 5720 5724 5726 5729 5733 5735 5736 5736 5738 5737 5739 5742 5744 5744 5747 5749 5750 5752 5753 5753 5754 5752 5752 5751 5753 5754 5755 5757 5757 5758 5758 5757 5757 5757
5618 5629 5643 5651 5655 5663 5672 5686 5692 5703 5708 5712 5716 5722 5724 5728 5729 5731 5732 5734 5734 5735 5738 5742 5741 5742 5744 5745 5748 5749 5751 5751 5749 5747 5747 5749 5750 5751 5753 5754 5753 5754 5755 5756 5755
5602 5612 5629 5637 5639 5647 5664 5675 5683 5694 5698 5703 5706 5712 5718 5719 5724 5726 5728 5730 5730 5731 5733 5735 5738 5740 5739 5741 5744 5744 5744 5745 5746 5744 5743 5745 5747 5747 5749 5750 5749 5749 5750 5750 5751
5585 5598 5613 5620 5622 5640 5654 5665 5673 5682 5687 5694 5698 5705 5711 5714 5718 5720 5724 5725 5725 5726 5728 5730 5732 5735 5737 5738 5738 5738 5739 5740 5741 5743 5742 5741 5744 5744 5745 5744 5744 5744 5744 5744 5746
5568 5582 5590 5603 5611 5633 5645 5653 5662 5671 5676 5685 5692 5695 5700 5707 5710 5715 5719 5720 5720 5722 5723 5726 5727 5730 5733 5734 5734 5734 5735 5736 5736 5737 5737 5737 5740 5740 5740 5740 5739 5739 5738 5738 5738
5544 5554 5566 5584 5612 5620 5633 5642 5651 5663 5669 5674 5682 5688 5693 5699 5704 5708 5712 5715 5716 5718 5720 5721 5724 5725 5728 5730 5729 5730 5731 5731 5731 5731 5733 5733 5733 5734 5733 5732 5730 5732 5732 5732 5732
5516 5533 5560 5571 5595 5610 5621 5631 5640 5652 5657 5665 5673 5678 5686 5691 5696 5701 5707 5710 5711 5712 5715 5717 5718 5720 5722 5722 5723 5724 5726 5727 5727 5727 5727 5727 5726 5727 5726 5725 5724 5724 5726 5726 5727
5498 5523 5549 5571 5588 5598 5608 5621 5630 5644 5649 5656 5664 5672 5677 5684 5692 5696 5701 5704 5707 5708 5709 5711 5712 5714 5716 5718 5719 5718 5720 5720 5720 5721 5720 5720 5719 5720 5721 5720 5719 5718 5718 5718 5718
5485 5515 5540 5557 5572 5584 5601 5614 5624 5636 5644 5653 5660 5669 5672 5681 5687 5690 5691 5696 5700 5701 5703 5705 5706 5708 5711 5713 5713 5713 5715 5714 5714 5713 5713 5712 5714 5713 5714 5713 5713 5712 5711 5710 5709
Wind_Speed
36 35 33 32 32 31 31 30 29 29 27 25 28 29 30 31 38 43 47 47 29 23 20 18 18 16 14 14 13 11 14 17 19 23 25 28 22 25 24 23 19 22 23 25 24
39 37 36 35 35 34 33 32 31 29 28 26 28 28 29 32 38 43 47 45 28 19 16 14 14 11 15 14 9 11 16 20 21 24 26 23 18 22 21 17 17 19 26 27 32
42 40 38 39 37 35 34 34 33 30 28 26 26 28 29 32 37 44 46 38 28 21 14 11 7 7 17 17 14 16 18 25 27 26 26 27 22 17 19 21 17 18 22 25 31
43 42 41 40 39 37 34 35 33 30 27 24 24 27 29 32 39 43 42 31 26 22 9 6 3 7 16 20 18 16 16 23 25 27 23 20 20 21 27 26 27 26 23 23 19
46 44 42 41 39 37 35 35 33 30 26 23 24 27 28 31 39 40 41 27 23 13 7 6 9 10 11 21 20 16 17 18 22 20 17 17 20 26 25 26 27 26 25 23 15
46 45 43 39 37 37 37 34 32 30 27 22 24 26 27 31 36 39 36 22 14 10 5 8 8 10 10 23 21 19 16 11 13 20 18 16 19 19 13 15 15 13 9 14 13
47 45 42 40 38 37 35 34 33 30 28 22 24 26 26 30 36 37 31 14 14 9 7 9 10 11 12 14 21 23 22 18 14 14 16 19 4 3 4 6 5 11 18 17 15
50 49 45 41 41 38 36 36 34 30 28 22 24 25 26 28 34 35 24 15 11 11 10 9 12 9 8 18 15 25 25 17 19 16 17 8 4 7 5 6 4 7 15 11 19
53 49 46 47 43 39 36 36 34 31 27 23 24 23 26 27 31 35 18 12 10 11 8 8 9 7 8 15 18 16 22 23 9 11 15 14 5 6 11 12 16 13 16 17 16
52 51 51 46 42 40 37 37 34 31 27 25 23 23 25 27 31 31 16 10 9 11 6 6 7 3 5 17 18 18 19 17 12 18 17 14 8 10 9 11 12 11 10 11 9
54 50 48 41 40 39 39 35 35 31 27 27 24 24 25 28 28 28 14 7 8 2 2 3 2 8 10 12 14 6 4 14 17 18 15 11 9 4 8 9 13 12 8 9 9
54 51 48 44 39 40 37 38 34 31 28 28 24 24 25 27 28 25 13 4 3 2 0 3 3 8 9 10 15 13 19 16 15 13 12 11 8 6 2 8 12 7 8 8 8
53 50 47 44 41 41 38 39 35 33 32 28 23 25 25 25 25 21 12 8 2 5 5 4 11 9 15 17 14 15 10 10 10 10 11 11 10 4 4 4 7 7 8 5 6
55 52 50 47 44 42 42 37 38 35 35 26 27 26 22 24 21 16 10 12 6 7 5 6 11 5 15 8 11 10 15 14 11 8 4 4 7 2 4 7 4 2 6 5 8
59 55 53 49 47 46 45 40 37 36 36 29 29 25 23 22 20 13 12 13 10 10 8 8 9 14 17 9 7 8 9 15 14 6 8 7 4 4 7 9 4 5 7 8 9
62 59 56 52 50 49 47 44 41 38 38 31 27 24 22 21 18 14 12 13 14 13 16 11 9 14 18 17 9 6 8 16 14 14 13 12 10 5 9 7 4 11 11 7 8
63 62 58 54 52 51 50 47 45 44 34 33 27 23 23 22 19 14 15 14 16 16 19 20 13 15 17 18 16 10 13 14 15 18 17 18 18 9 8 8 7 9 8 7 4
64 63 61 56 57 54 49 47 45 40 37 34 30 29 24 24 20 16 16 18 20 19 23 20 19 20 21 19 16 20 17 15 17 19 22 23 21 15 12 11 10 12 12 6 5
64 64 61 58 58 57 53 51 42 39 37 37 37 34 29 26 24 18 16 17 18 18 21 25 23 25 26 20 17 18 19 20 23 22 23 19 17 13 15 15 14 14 13 10 10
66 65 61 55 59 60 58 50 46 41 38 39 39 34 29 28 27 21 15 16 18 22 23 26 27 28 28 23 19 17 20 20 20 21 23 21 21 19 16 18 19 14 16 17 15
72 69 64 58 61 64 55 50 49 44 43 42 43 41 32 31 24 21 17 17 19 22 25 28 30 28 28 28 16 17 16 16 17 22 18 19 19 23 18 17 19 17 19 18 17
77 73 69 65 69 60 54 53 53 44 48 47 46 41 35 31 27 23 19 21 21 20 22 29 30 27 28 22 21 22 23 22 21 19 22 23 22 21 18 18 19 20 21 22 23
81 77 75 69 70 58 55 57 54 47 50 47 45 47 40 35 31 24 21 22 23 23 23 27 27 26 24 25 20 16 18 26 24 25 27 26 19 18 19 22 25 26 28 29 30
88 85 83 76 64 61 60 56 55 49 51 52 49 49 43 38 33 28 21 23 22 24 27 27 27 27 22 22 22 20 18 24 26 30 29 24 22 20 21 26 30 29 29 30 29
96 91 83 79 69 62 61 58 58 52 54 52 52 51 45 40 35 29 22 23 21 24 26 26 28 26 29 28 24 26 23 27 31 30 27 25 27 24 23 26 29 28 27 29 25
98 91 84 75 70 66 64 60 57 51 53 53 55 49 47 42 35 27 23 25 22 26 28 26 28 29 29 26 25 27 27 30 31 29 26 28 32 31 25 27 27 26 25 25 26
98 90 83 79 74 71 61 59 57 51 51 49 48 45 46 39 33 30 30 28 26 28 27 30 30 28 26 29 31 30 26 28 30 33 34 34 31 30 26 24 25 25 25 27 29
Wind_Direction
266 269 272 276 280 283 284 284 282 285 292 300 308 310 311 311 311 315 321 328 327 317 307 297 303 304 255 216 215 204 192 202 217 216 219 222 232 232 233 236 243 245 252 263 270
264 267 270 274 278 281 281 282 283 284 288 297 304 308 308 311 311 316 324 330 328 326 313 304 300 291 224 210 204 200 200 209 218 233 230 229 241 250 252 252 259 262 256 270 281
264 266 269 274 278 280 280 279 279 282 286 293 301 307 306 309 311 319 325 331 328 326 318 301 300 296 212 205 206 205 213 213 217 231 241 245 249 282 280 264 270 268 268 265 265
261 264 267 272 276 279 278 277 278 280 283 290 298 304 305 308 312 318 327 330 330 328 317 275 264 268 211 207 210 222 226 220 222 226 242 263 268 269 272 259 255 260 266 253 257
261 263 266 270 274 277 276 276 278 279 281 286 294 300 303 306 309 318 330 330 336 340 318 235 240 250 249 212 219 226 242 237 235 242 248 244 249 271 268 267 262 270 277 262 235
259 263 264 267 271 272 273 273 274 275 281 285 291 297 300 304 311 318 333 337 343 352 318 249 270 257 252 223 228 234 247 250 244 245 252 271 272 291 289 286 290 274 268 229 207
257 258 260 263 267 269 273 272 271 271 277 280 288 293 298 304 308 319 331 335 350 351 308 283 272 241 241 249 232 236 246 238 245 254 271 289 284 293 329 348 258 218 228 218 191
252 255 257 260 266 266 265 273 269 268 273 277 285 291 294 300 307 319 327 325 324 321 302 280 251 252 232 245 243 239 243 244 251 273 270 234 14 344 337 358 18 79 108 118 106
252 253 253 250 262 264 263 269 265 264 269 273 282 286 292 297 307 320 322 318 320 314 300 240 247 229 217 242 253 267 248 234 234 274 114 103 86 57 65 70 74 61 75 98 106
254 256 254 250 256 261 261 261 262 261 264 272 278 283 287 294 305 317 317 307 328 323 237 222 215 180 225 236 246 268 263 239 252 133 134 133 122 89 91 103 97 90 101 113 110
252 254 256 252 253 252 256 259 258 257 259 271 273 276 282 289 299 314 315 309 347 338 206 149 210 270 260 240 248 261 188 159 153 151 153 149 143 97 86 107 148 132 112 117 132
258 255 252 250 246 253 250 253 254 255 251 262 265 271 276 284 297 312 308 254 337 132 51 2 200 223 207 200 176 152 145 159 153 155 170 164 165 170 119 125 139 159 139 123 121
250 252 251 246 244 247 245 248 249 251 249 260 257 260 270 281 294 306 294 226 267 255 290 171 155 140 136 153 171 183 186 165 160 176 190 174 189 158 141 156 136 154 170 162 128
246 247 248 244 243 241 242 244 248 248 247 250 254 254 265 272 285 298 287 222 221 247 203 178 176 167 169 176 165 171 182 196 206 179 211 200 206 178 194 184 139 189 174 204 199
245 244 245 243 241 240 243 234 243 245 248 246 245 248 257 263 281 276 272 225 211 212 236 217 197 203 196 184 192 207 217 217 222 226 266 301 292 252 261 295 270 234 193 200 213
242 242 242 243 239 240 244 236 232 237 240 245 242 243 253 255 272 275 252 230 220 218 216 192 193 195 198 206 229 244 241 224 217 220 237 248 254 284 295 307 262 287 201 204 192
237 238 239 239 238 239 240 236 232 234 236 240 240 242 245 252 264 273 245 244 244 243 231 217 188 201 182 199 227 232 235 232 235 238 242 246 261 238 279 265 277 281 242 243 228
234 233 235 235 237 238 236 236 235 237 230 236 236 238 243 247 256 260 250 246 256 250 224 214 196 198 200 212 241 245 248 256 242 241 250 253 258 265 245 220 240 249 256 245 236
230 231 231 231 232 235 234 233 233 230 224 228 231 234 238 246 252 255 256 250 254 237 232 213 197 202 205 223 235 237 252 261 261 254 249 255 256 277 233 252 260 254 240 233 225
227 229 228 226 228 232 233 232 231 222 223 227 232 235 238 246 246 255 251 251 245 245 236 231 207 203 216 225 230 259 254 255 262 273 256 253 258 263 253 256 265 256 233 225 229
222 225 222 217 227 229 230 228 229 216 219 222 228 232 234 238 238 240 241 246 241 240 245 247 235 219 221 226 241 264 254 258 260 261 252 251 251 257 265 252 259 263 248 244 242
219 220 220 216 224 225 224 226 224 212 219 222 226 227 234 240 233 231 235 237 242 242 248 248 243 235 231 224 240 256 244 235 255 256 260 249 240 249 257 268 265 265 258 252 257
217 216 218 215 221 220 222 225 220 210 216 219 224 225 231 231 231 227 230 231 237 236 238 244 250 249 230 232 247 253 259 259 250 251 259 260 260 265 262 258 253 253 256 261 262
214 214 215 215 218 217 219 223 222 211 219 219 220 224 232 234 232 230 226 236 239 239 235 241 244 248 238 237 248 241 243 251 256 264 265 269 277 275 272 263 259 261 260 263 264
213 212 214 214 215 216 215 217 222 214 220 220 217 222 230 234 235 230 228 233 239 236 239 243 243 248 248 246 230 242 244 251 262 266 275 279 281 278 267 275 276 269 265 273 275
212 210 210 212 214 217 215 214 220 214 219 223 217 220 226 229 231 234 230 242 241 238 242 254 252 248 253 251 238 236 245 251 263 272 274 275 275 277 268 264 271 279 275 272 275
209 209 207 210 208 213 213 214 219 214 214 218 223 221 227 229 225 228 236 233 235 236 238 252 259 249 252 255 257 251 252 260 266 270 275 276 277 277 274 271 267 265 270 275 279